COSMOS 1375 DEB, 16211

Orbit data source: Space-Track

COSMOS 1375 DEB, 16211 is space debris in LEO originally from a launch on Sun, 06 Jun 1982 UTC launched from the Plesetsk Missile And Space Complex (PKMTR). Debris objects in space refer to the collection of defunct objects orbiting the Earth. Examples of debris include non-operational satellites, rocket bodies, and fragments generated from explosions, collisions, or faulty payload assembly.

Loading next visibility...
Identifier
16211, 1982-055N
Orbit
LEO
Country
Flag of CISCIS
Related business
Manufacturer
Unknown
Mission
Spacecraft
Bus & Motor
Unknown
Mass
Unknown
Launch date (UTC)
1982-06-06 (44 years ago)
Launch vehicle
Unknown
Launch site
Plesetsk Missile And Space Complex (PKMTR)
Object type
Payload
Rocket body
Debris
Shape & HBR
Unknown shape, 0.1 m
Radar Cross Section
Medium (>0.1 m² and <1 m²)

Expand to show TLE details & history
Last TLE update: 3 days ago

TLE from 3 days ago
0 COSMOS 1375 DEB
1 16211U 82055N   26171.06034891 -.00000008  00000-0  80885-4 0  9991
2 16211  65.8358  16.6473 0021695  69.8085  96.6307 13.70471911 33072
Epoch: 2026-06-20T01:26Z
TLE epoch observation values (Epoch: 2026-06-20T01:26:54.145Z)
Latitude
12.10368°
Longitude
-98.85131°
Altitude
1,000.985 km
Speed
7.352 km/s
True Right ascension
12h 44m 37s
True Declination
12° 02' 09"
Sunlit
Object was in daylight at epoch
Visualization orbit readout
Latitude
Unknown
Longitude
Unknown
Altitude
Unknown
Speed
Unknown
Apparent Right ascension
Unknown
Apparent Declination
Unknown
Sunlit
N/A
Visualization observer readout
Local Sidereal Time
09:40:51
Azimuth
Unknown
Elevation
Unknown
Doppler factor
Unknown
Orbital elements
Apogee altitude
1,012.396 km
Perigee altitude
980.398 km
Semi-major axis
7,374.534 km
Eccentricity
0.00217
Inclination
65.8358°
RAAN
16.6473°
Arg. of periapsis
69.8085°
True anomaly
96.87757°
Mean anomaly
96.6307°
Eccentric anomaly
96.75414°
Mean motion
3.42721 °/min
Orbital period
105.04 mins
BSTAR
0.000080885
Loading maneuver chart data...
Computing Atmospheric mass density...
Loading historical data...
Loading historical data...
Loading historical data...
Loading historical data...
Loading historical data...
Loading historical data...
Loading historical data...

Documentation

Showing up to 5 results
|